Tracking 30922 objects as of 2-Jul-2025
HD Live streaming from Space Station
objects crossing your sky now

FENGYUN 1C DEB

Track FENGYUN 1C DEB now!
10-day predictions


NORAD ID: 37044
Int'l Code: 1999-025EEC
Perigee: 632.8 km
Apogee: 1,392.6 km
Inclination: 99.0 °
Period: 105.2 minutes
Semi major axis: 7383 km
RCS: 0.0003 m2 (small)
Launch date: May 10, 1999
Source: People's Republic of China (PRC)
Launch site: Taiyaun Space Center, China (TSC)

Note: This is SATELLITE DEBRIS
Your satellite tracking list
Your tracking list is empty




NASA's NSSDC Master Catalog

Two Line Element Set (TLE):
1 37044U 99025EEC 25179.05411033  .00004513  00000-0  20986-2 0  9994
2 37044  98.9573 296.0232 0514521 243.9833 110.7477 13.68342240815638
Source of the keplerian elements: AFSPC